{"data":{"norad_id":66594,"epoch":"2026-05-24T20:45:36.784512Z","epoch_age_seconds":80732,"freshness":"FRESH","line1":"1 66594U 25270G   26144.86500908  .00019775  00000+0  72580-3 0  9992","line2":"2 66594  43.0035 346.1775 0002212 269.6685  90.3914 15.27597254 29160","mean_motion":15.27597254,"eccentricity":0.0002212,"inclination_deg":43.0035,"raan_deg":346.1775,"arg_perigee_deg":269.6685,"mean_anomaly_deg":90.3914,"bstar":0.0007258,"rev_number":2916,"period_min":94.265683983745,"perigee_km":481.47974890652,"apogee_km":484.51511477917,"semimajor_km":6861.1344318428,"source":"CELESTRAK","updated_at":"2026-05-25T13:38:21.287993Z"}}